Location: Helsinki
(60.1699°N, 24.9384°E)
Time: 21:45:25
(UTC+03:00)

Tiros 1 despin weight - Visible Passes

Search period start: 02 October 2022 00:00
Search period end: 12 October 2022 00:00
Orbit: 590 x 638 km, 48.2° (Epoch: 02 October)

Date Brightness Start Highest point End Pass type
(mag) Time Alt. Az. Time Alt. Az. Time Alt. Az.
02 Oct ? 19:43:58 10° SW 19:47:02 18° S 19:50:07 10° SE visible
02 Oct ? 21:24:33 10° SW 21:27:23 16° SSW 21:27:48 16° S visible
03 Oct ? 19:58:52 10° SW 20:01:59 18° S 20:05:08 10° SE visible
03 Oct ? 21:40:02 10° SW 21:42:17 14° SSW 21:42:23 14° SSW visible
04 Oct ? 20:13:56 10° SW 20:16:56 17° S 20:19:58 10° SSE visible
04 Oct ? 21:56:31 10° SW 21:56:58 10° SSW 21:56:58 10° SSW visible
05 Oct ? 20:29:13 10° SW 20:31:52 15° SSW 20:34:31 10° SSE visible
06 Oct ? 20:44:53 10° SW 20:46:45 12° SSW 20:48:37 10° S visible
07 Oct ? 19:18:32 10° SW 19:21:25 17° S 19:24:17 10° SSE visible
08 Oct ? 19:33:54 10° SW 19:36:18 14° SSW 19:38:43 10° SSE visible
09 Oct ? 19:49:51 10° SW 19:51:08 11° SSW 19:52:26 10° S visible
